SCP
0 0 0 0 0 0 0 0 0 0 0 0 0 0 0 0 0 0 0 0 0 0 0 0 0 0 0 0 0 0 0 0 0 0 0 0 0 0 0 0 0 0 0
0 0 0 0 0 0 0 0 0 0 0 0 0 0 0 0 0 0 0 0 0 0 0 0 0 0 0 0 0 0 0 0 0 0 0 0 0 0 0 0 0 0 0
0 0 0 0 0 0 0 0 0 0 0 0 0 0 0 0 0 0 0 0 0 0 0 0 0 0 0 0 0 0 0 0 0 0 0 0 0 0 0 0 0 0 0
0 0 0 0 0 0 0 0 0 0 0 0 0 0 0 0 0 0 0 0 0 0 0 0 0 0 0 0 0 0 0 0 0 0 0 0 0 0 0 0 0 0 0
0 0 0 0 0 0 0 0 0 0 0 0 0 0 0 0 0 0 0 0 0 0 0 0 0 0 0 0 0 0 0 0 0 0 0 0 0 0 0 0 0 0 0
0 0 0 0 0 0 0 0 0 0 0 0 0 0 0 0 0 0 0 0 0 0 0 0 0 0 0 0 0 0 0 0 0 0 0 0 0 0 0 0 0 0 0
0 0 0 0 0 0 0 0 0 0 0 0 0 0 0 0 0 0 0 0 0 0 0 0 0 0 0 0 0 0 0 0 0 0 0 0 0 0 0 0 0 0 0
0 0 0 0 0 0 0 0 0 0 0 0 0 0 0 0 0 0 0 0 0 0 0 0 0 0 0 0 0 0 0 0 0 0 0 0 0 0 0 0 0 0 0
0 0 0 0 0 0 0 0 0 0 0 0 0 0 0 0 0 0 0 0 0 0 0 0 0 0 0 0 0 0 0 0 0 0 0 0 0 0 0 0 0 0 0
-0 0 0 0 0 0 0 0 0 0 0 0 0 0 0 0 0 0 0 0 0 0 0 0 0 0 0 0 0 0 0 0 0 0 0 0 0 0 0 0 0 0 0
0 0 0 0 0 0 0 0 0 0 0 0 0 0 0 0 0 0 0 0 0 0 0 0 0 0 0 0 0 0 0 0 0 0 0 0 0 0 0 0 0 0 0
0 0 0 0 0 0 0 -0 -0 0 0 0 0 0 0 0 0 0 0 0 0 0 0 0 0 0 0 0 0 0 0 0 0 0 0 0 0 0 0 0 0 0 0
0 0 0 0 0 0 0 -0 -0 -0 0 0 0 0 0 0 0 0 0 0 0 0 0 0 0 0 0 0 0 0 0 0 0 0 0 0 0 0 0 0 0 0 0
0 0 0 0 0 0 0 0 0 0 0 0 0 0 0 0 0 0 0 0 0 0 0 0 0 0 0 0 0 0 0 0 0 0 0 0 0 0 0 0 0 0 0
0 0 0 0 0 0 0 0 0 0 0 0 0 0 0 0 0 0 0 0 0 0 0 0 0 0 0 0 0 0 0 0 0 0 0 0 0 0 0 0 0 0 0
0 0 0 0 0 0 0 0 0 0 0 0 0 0 0 0 0 0 0 0 0 0 0 0 0 0 0 0 0 0 0 0 0 0 0 0 0 0 0 0 0 0 0
0 0 0 0 0 0 0 0 0 0 0 0 0 0 0 0 0 0 0 0 0 0 0 0 0 0 0 0 0 0 0 0 0 0 0 0 0 0 0 0 0 0 0
0 0 0 0 0 0 0 0 0 0 0 0 0 0 0 0 0 0 0 0 0 0 0 0 0 0 0 0 0 0 0 0 0 0 0 0 0 0 0 0 0 0 0
0 0 -0 0 0 0 0 0 0 0 0 0 0 0 0 0 0 0 0 0 0 0 0 0 0 0 0 0 0 0 0 0 0 0 0 0 0 0 0 0 0 0 0
-0 -0 -0 -0 -0 -0 -0 0 0 0 0 0 0 0 0 0 0 0 0 0 0 0 0 0 0 0 0 0 0 0 0 0 0 0 0 0 0 0 0 0 0 0 0
0 0 0 -0 -0 -0 -0 -0 -0 -0 -0 0 0 0 0 0 0 0 0 0 0 0 0 0 0 0 0 0 0 0 0 0 0 0 0 0 0 0 0 0 0 0 0
0 0 0 0 0 0 0 -0 -0 -0 -0 0 0 0 0 0 0 0 0 0 0 0 0 0 0 0 0 0 0 0 0 0 0 0 0 0 0 0 0 0 0 0 0
0 0 0 0 0 0 0 0 0 -0 -0 0 0 0 0 0 0 0 0 0 0 0 0 0 0 0 0 0 0 0 0 0 0 0 0 0 0 0 0 0 0 0 0
0 0 0 0 0 0 0 0 0 0 -0 0 0 0 0 0 0 0 0 0 0 0 0 0 0 0 0 0 0 0 0 0 0 0 0 0 0 0 0 0 0 0 0
0 0 0 0 0 0 0 0 0 0 -0 -0 -0 0 0 0 0 0 0 0 0 0 0 0 0 0 0 0 0 0 0 0 0 0 0 0 0 0 0 0 0 0 0
0 0 0 0 0 0 0 0 0 0 -0 -0 -0 0 0 0 0 0 0 0 0 0 0 0 0 0 0 0 0 0 0 0 0 0 0 0 0 0 0 0 0 0 0
Wind_Speed
23 18 12 8 9 11 14 17 18 17 14 13 13 12 14 12 11 11 12 13 11 11 10 8 8 7 7 6 6 4 3 2 2 3 3 3 3 3 3 2 3 5 4
18 17 13 5 7 10 13 15 17 17 18 16 14 8 7 6 6 5 7 10 11 12 11 11 9 9 6 7 6 5 4 2 1 3 4 2 1 1 2 1 2 3 3
19 18 13 6 7 10 12 13 16 16 18 14 8 6 5 4 5 7 9 12 14 14 12 12 11 10 9 8 8 6 7 5 2 1 5 5 4 2 1 1 2 3 3
11 11 11 9 9 11 10 11 12 14 15 15 15 17 14 13 14 12 11 11 12 13 12 13 12 11 9 8 8 6 4 6 4 2 2 2 4 4 1 2 2 2 2
8 10 11 11 10 7 5 7 9 11 13 15 17 17 14 10 6 5 9 9 8 10 12 12 12 11 9 9 9 7 6 4 6 5 4 3 2 2 3 3 2 2 1
10 11 11 9 8 4 1 4 8 9 11 14 15 16 14 11 10 9 11 10 7 9 12 13 12 12 10 11 10 9 8 5 5 4 4 5 5 4 4 4 2 2 2
9 11 13 13 10 5 0 3 7 8 10 12 14 15 14 14 15 13 14 12 9 10 14 13 12 11 11 10 9 9 8 7 7 6 4 3 4 4 5 4 3 2 2
8 10 10 10 9 5 1 3 6 7 9 12 12 11 12 10 10 11 11 13 12 12 13 12 11 10 11 10 10 9 8 7 7 7 6 4 4 3 4 5 5 3 2
9 11 12 11 9 6 4 3 4 5 7 9 10 10 11 11 10 10 9 10 9 9 13 14 13 12 12 12 11 8 9 9 8 8 7 5 4 3 3 4 4 5 3
11 13 14 14 12 9 7 5 5 5 5 6 8 8 10 11 9 9 13 12 11 11 14 15 14 13 13 13 12 10 10 10 8 7 9 7 5 5 4 5 3 3 4
15 15 15 14 14 13 10 8 7 7 7 6 7 8 8 8 8 9 12 13 12 14 16 17 16 16 16 15 14 13 13 13 11 9 10 10 8 7 5 5 5 4 4
16 15 14 15 16 16 15 13 10 8 8 8 8 9 9 8 10 13 12 12 13 15 15 16 17 17 17 17 18 17 16 16 15 14 13 12 10 10 8 7 7 6 6
18 18 17 17 17 15 14 13 12 11 10 9 9 10 10 11 14 15 12 12 13 14 15 17 19 19 18 18 18 17 17 17 16 16 16 15 14 13 9 9 8 7 7
17 18 18 17 17 16 15 14 13 12 13 13 10 11 12 14 16 14 12 13 14 15 16 18 18 18 17 18 17 17 17 16 15 14 15 15 16 15 13 10 10 8 7
18 18 17 17 18 18 18 17 16 15 15 15 14 13 12 12 13 13 13 13 15 16 15 15 15 16 16 17 19 18 17 17 17 15 14 14 16 18 15 11 11 11 8
15 15 15 16 17 18 18 18 18 17 16 16 15 14 12 11 11 12 12 13 14 14 14 17 17 18 16 25 31 22 17 17 18 17 15 14 15 20 22 20 19 16 11
11 12 13 14 14 15 15 17 16 16 15 15 15 15 13 12 11 10 11 13 14 14 16 17 17 19 21 30 32 31 18 17 17 18 17 14 14 16 15 18 22 19 19
9 9 10 12 13 14 14 15 15 14 14 13 14 14 14 13 11 9 10 11 10 13 15 16 17 16 19 30 32 32 18 15 15 17 18 17 18 17 17 14 12 10 9
7 8 8 10 11 12 13 15 16 15 15 14 14 15 15 15 12 10 10 9 9 11 12 12 14 16 17 29 31 30 13 12 15 15 16 16 17 24 25 15 12 11 8
7 8 8 8 10 11 11 13 15 15 16 16 17 16 15 15 14 12 9 7 8 9 9 10 12 13 12 24 31 31 12 13 12 12 14 17 19 25 27 15 13 12 10
10 9 8 9 9 9 10 13 15 15 15 16 17 17 15 15 14 11 7 6 6 7 8 8 7 9 10 20 31 32 13 14 13 12 12 13 24 25 26 19 12 13 10
12 10 9 12 12 9 8 13 15 13 14 16 17 18 17 14 11 11 8 6 7 8 8 7 6 6 8 14 24 33 25 20 13 12 12 14 26 25 24 17 16 18 11
14 10 10 14 16 10 7 14 15 12 14 16 18 18 18 15 11 11 10 7 8 8 8 8 9 8 8 13 25 30 31 27 13 9 16 20 27 24 18 19 18 10 7
13 11 11 14 18 13 10 11 13 11 13 17 18 17 17 17 13 10 10 9 10 10 10 11 11 10 10 11 12 13 19 23 16 12 15 22 24 17 11 8 9 6 6
15 11 11 15 19 17 15 11 9 10 15 18 18 16 15 16 14 11 11 12 12 12 12 11 11 12 13 16 22 17 14 14 14 15 10 9 11 9 8 6 6 5 6
15 15 15 17 18 17 18 13 9 10 15 18 17 13 12 13 13 12 11 20 20 21 25 21 16 13 16 20 27 31 28 29 30 21 14 13 12 11 10 9 7 6 6
Wind_Direction
271 276 272 245 223 215 207 205 200 196 182 183 185 185 193 191 191 192 186 182 176 172 169 165 161 167 173 174 161 140 136 121 142 115 86 49 50 65 50 67 85 65 62
283 283 284 264 227 219 211 206 201 192 188 191 191 188 176 180 185 174 173 177 173 173 176 170 173 174 167 169 176 160 145 130 124 133 119 102 36 360 7 20 76 69 62
278 289 310 302 245 232 216 207 200 193 191 180 162 135 113 106 153 181 187 188 182 179 178 176 173 176 176 181 183 179 158 145 133 131 143 151 193 230 308 337 27 43 50
293 301 304 296 260 242 220 205 193 189 184 175 177 177 185 190 192 190 189 184 183 179 176 175 176 177 178 178 182 181 178 143 145 127 73 112 145 156 202 304 348 12 18
311 307 305 298 288 273 225 194 181 182 180 182 186 188 197 198 169 158 165 172 178 179 177 176 177 178 179 178 175 176 181 164 154 154 147 119 73 109 152 216 309 342 295
320 320 319 319 316 328 256 173 169 177 179 186 188 193 194 179 166 171 175 177 180 185 186 181 182 181 180 180 180 179 182 179 161 161 157 155 157 173 163 175 206 276 288
324 327 332 335 331 331 322 172 170 176 180 189 196 198 197 190 189 183 183 181 181 192 194 188 186 185 184 179 173 176 183 179 173 170 172 164 158 149 144 140 153 207 276
326 334 339 337 333 324 241 190 188 187 187 195 201 201 199 198 198 188 186 188 192 194 184 188 186 184 178 176 174 177 178 175 174 173 163 159 162 154 144 148 145 165 246
333 347 356 356 348 337 304 249 223 216 206 206 206 205 203 204 199 187 184 191 190 180 177 183 184 182 180 177 173 179 178 176 179 176 169 161 160 154 138 139 148 154 184
350 5 14 10 4 353 337 324 298 272 249 230 224 223 218 214 200 185 194 194 188 179 178 184 185 183 183 179 177 177 176 175 178 173 169 165 158 157 158 162 156 145 157
10 18 19 18 18 13 2 343 323 307 292 269 251 244 235 222 212 208 205 198 189 185 185 186 186 186 186 183 182 181 176 179 177 176 176 173 161 164 161 159 162 167 163
20 18 16 16 17 14 9 1 344 321 294 274 257 247 240 222 218 221 213 202 196 192 189 186 188 190 190 188 187 183 180 181 182 181 177 174 168 168 169 170 176 180 181
11 9 8 7 6 3 359 357 352 343 326 298 268 253 239 229 227 226 218 208 203 198 193 190 192 193 192 191 191 186 184 186 186 183 182 177 173 176 175 176 178 179 182
6 3 359 356 354 352 350 347 343 343 338 328 302 274 252 238 234 228 216 209 205 204 202 199 197 194 192 192 190 188 187 185 184 182 182 179 181 180 174 176 178 175 176
358 355 349 346 344 344 344 342 340 341 337 334 326 304 279 256 242 231 220 211 208 207 203 203 201 195 192 193 191 190 188 184 181 181 183 183 183 180 176 175 176 176 174
346 342 340 340 339 338 336 336 336 336 333 330 327 321 306 281 257 242 227 216 211 206 200 203 201 201 202 201 197 190 189 187 183 180 180 180 180 184 183 186 184 182 173
334 331 330 331 329 329 329 329 328 327 325 323 323 326 320 304 282 258 235 223 214 205 206 206 204 206 208 204 201 197 188 190 189 181 176 175 178 179 179 186 187 192 193
317 314 317 320 319 319 322 324 323 321 319 317 320 324 321 311 296 272 247 233 218 212 211 209 208 209 210 207 203 198 190 191 190 185 180 176 173 181 178 183 187 186 196
290 295 296 300 305 309 317 321 320 320 320 319 321 323 320 311 300 278 254 235 222 220 217 211 208 210 210 209 203 194 183 188 188 185 181 178 173 181 179 175 177 181 192
283 284 284 286 292 301 313 314 314 317 319 321 320 317 313 304 294 279 259 235 223 224 217 218 212 209 204 207 203 192 177 182 181 181 182 184 176 180 179 172 174 180 187
284 283 281 285 289 298 306 305 306 309 313 316 314 311 305 298 291 281 259 231 217 213 212 216 208 205 198 209 206 194 178 182 178 179 179 184 181 182 184 177 180 188 181
285 284 288 293 294 293 293 296 297 305 311 311 309 308 305 298 289 275 256 231 212 208 207 204 200 197 192 209 215 201 184 185 182 182 178 181 181 181 186 183 185 192 168
287 291 292 293 294 292 284 292 300 310 310 308 306 305 304 295 280 266 253 230 215 213 209 204 205 199 196 210 219 210 190 189 179 179 178 177 179 179 185 188 184 163 139
288 289 286 287 290 294 291 289 300 308 306 302 300 299 298 294 280 259 245 232 219 215 211 208 208 201 197 199 209 208 191 184 174 171 175 175 176 164 146 161 162 141 146
289 286 283 285 288 295 295 296 301 304 300 296 293 292 288 286 281 261 243 236 229 221 215 214 206 201 203 202 199 195 186 171 164 158 157 163 161 150 147 144 146 148 150
292 293 292 291 293 296 295 297 295 289 290 291 290 287 286 286 282 272 260 247 240 237 232 225 216 215 210 203 205 204 190 175 168 161 165 169 169 167 165 164 161 161 158